| time (UTC) | temp F | wind direction | speed knots | gust knots | rain 1hr in | rain 24hr in | rain mn in | humidity % | barometer mb |
| 20260505230735 | 65 | 36 | 0.9 | 0.9 | 0.00 | 0.00 | 0.00 | 76 | 1001.5 |
| 20260505230231 | 66 | 282 | 2.6 | 2.6 | 0.00 | 0.00 | 0.00 | 70 | 1001.7 |
| 20260505225728 | 67 | 295 | 5.2 | 7.0 | 0.00 | 0.00 | 0.00 | 63 | 1002.0 |
| 20260505225225 | 66 | 267 | 2.6 | 2.6 | 0.00 | 0.00 | 0.00 | 62 | 999.5 |
| 20260505224720 | 67 | 268 | 3.5 | 3.5 | 0.00 | 0.00 | 0.00 | 62 | 999.2 |
| 20260505224218 | 67 | 250 | 2.6 | 2.6 | 0.00 | 0.00 | 0.00 | 62 | 998.9 |
| 20260505223716 | 67 | 331 | 3.5 | 3.5 | 0.00 | 0.00 | 0.00 | 61 | 999.0 |
| 20260505223212 | 67 | 182 | 2.6 | 3.5 | 0.00 | 0.00 | 0.00 | 61 | 998.7 |
| 20260505222708 | 67 | 258 | 2.6 | 2.6 | 0.00 | 0.00 | 0.00 | 61 | 998.6 |
| 20260505222203 | 67 | 193 | 3.5 | 5.2 | 0.00 | 0.00 | 0.00 | 61 | 998.7 |
| 20260505221701 | 67 | 218 | 3.5 | 7.0 | 0.00 | 0.00 | 0.00 | 60 | 998.7 |
| 20260505221158 | 68 | 259 | 6.1 | 7.8 | 0.00 | 0.00 | 0.00 | 60 | 998.4 |
| 20260505220655 | 68 | 290 | 5.2 | 7.0 | 0.00 | 0.00 | 0.00 | 59 | 998.7 |
| 20260505220153 | 68 | 241 | 7.8 | 11.3 | 0.00 | 0.00 | 0.00 | 59 | 998.8 |
| 20260505215650 | 68 | 249 | 9.6 | 12.2 | 0.00 | 0.00 | 0.00 | 59 | 998.4 |
| 20260505215148 | 69 | 226 | 4.3 | 6.1 | 0.00 | 0.00 | 0.00 | 59 | 998.4 |
| 20260505214646 | 69 | 292 | 1.7 | 2.6 | 0.00 | 0.00 | 0.00 | 59 | 998.3 |
| 20260505214143 | 69 | 249 | 4.3 | 6.1 | 0.00 | 0.00 | 0.00 | 58 | 998.0 |
| 20260505213640 | 69 | 291 | 5.2 | 7.0 | 0.00 | 0.00 | 0.00 | 58 | 998.3 |
| 20260505213137 | 69 | 172 | 2.6 | 2.6 | 0.00 | 0.00 | 0.00 | 59 | 998.3 |
| 20260505212632 | 69 | 283 | 2.6 | 2.6 | 0.00 | 0.00 | 0.00 | 58 | 998.4 |
| 20260505212130 | 70 | 283 | 10.4 | 13.9 | 0.00 | 0.00 | 0.00 | 58 | 998.2 |
| 20260505211627 | 71 | 149 | 5.2 | 7.0 | 0.00 | 0.00 | 0.00 | 57 | 998.3 |
| 20260505211125 | 70 | 210 | 2.6 | 3.5 | 0.00 | 0.00 | 0.00 | 57 | 998.2 |
| 20260505210621 | 71 | 205 | 6.1 | 9.6 | 0.00 | 0.00 | 0.00 | 56 | 998.0 |
| 20260505210118 | 71 | 95 | 1.7 | 3.5 | 0.00 | 0.00 | 0.00 | 57 | 998.2 |
| 20260505205615 | 71 | 206 | 2.6 | 3.5 | 0.00 | 0.00 | 0.00 | 57 | 998.0 |
| 20260505205113 | 70 | 268 | 2.6 | 2.6 | 0.00 | 0.00 | 0.00 | 58 | 998.3 |
| 20260505204610 | 71 | 306 | 6.1 | 7.8 | 0.00 | 0.00 | 0.00 | 57 | 998.1 |
| 20260505204108 | 71 | 252 | 1.7 | 2.6 | 0.00 | 0.00 | 0.00 | 58 | 998.0 |
| 20260505203604 | 71 | 212 | 1.7 | 2.6 | 0.00 | 0.00 | 0.00 | 57 | 998.2 |
| 20260505203101 | 71 | 209 | 3.5 | 3.5 | 0.00 | 0.00 | 0.00 | 57 | 998.3 |
| 20260505202557 | 71 | 254 | 5.2 | 7.0 | 0.00 | 0.00 | 0.00 | 56 | 998.1 |
| 20260505202053 | 71 | 285 | 5.2 | 7.0 | 0.00 | 0.00 | 0.00 | 56 | 997.9 |
| 20260505201550 | 72 | 125 | 0.9 | 0.9 | 0.00 | 0.00 | 0.00 | 58 | 998.3 |
| 20260505201048 | 73 | 264 | 1.7 | 2.6 | 0.00 | 0.00 | 0.00 | 55 | 998.3 |
| 20260505200545 | 73 | 236 | 1.7 | 1.7 | 0.00 | 0.00 | 0.00 | 55 | 998.5 |
| 20260505200042 | 73 | 330 | 2.6 | 2.6 | 0.00 | 0.00 | 0.00 | 55 | 998.4 |
| 20260505195538 | 74 | 299 | 2.6 | 2.6 | 0.00 | 0.00 | 0.00 | 54 | 998.6 |
| 20260505195036 | 73 | 86 | 1.7 | 2.6 | 0.00 | 0.00 | 0.00 | 53 | 998.5 |
| 20260505194533 | 74 | 273 | 3.5 | 5.2 | 0.00 | 0.00 | 0.00 | 52 | 998.6 |
| 20260505194028 | 74 | 268 | 5.2 | 9.6 | 0.00 | 0.00 | 0.00 | 53 | 998.4 |
| 20260505193526 | 74 | 284 | 5.2 | 6.1 | 0.00 | 0.00 | 0.00 | 53 | 998.5 |
| 20260505193023 | 74 | 231 | 3.5 | 6.1 | 0.00 | 0.00 | 0.00 | 53 | 998.8 |
| 20260505192521 | 73 | 274 | 3.5 | 5.2 | 0.00 | 0.00 | 0.00 | 54 | 998.8 |
| 20260505192019 | 73 | 283 | 1.7 | 2.6 | 0.00 | 0.00 | 0.00 | 55 | 998.8 |
| 20260505191517 | 73 | 280 | 7.0 | 12.2 | 0.00 | 0.00 | 0.00 | 54 | 999.2 |
| 20260505191014 | 73 | 326 | 1.7 | 2.6 | 0.00 | 0.00 | 0.00 | 54 | 999.0 |
| 20260505190509 | 74 | 276 | 4.3 | 5.2 | 0.00 | 0.00 | 0.00 | 54 | 999.2 |
| 20260505190005 | 73 | 245 | 3.5 | 5.2 | 0.00 | 0.00 | 0.00 | 54 | 999.3 |
| 20260505185502 | 73 | 318 | 1.7 | 2.6 | 0.00 | 0.00 | 0.00 | 54 | 999.1 |
| 20260505184958 | 73 | 293 | 4.3 | 5.2 | 0.00 | 0.00 | 0.00 | 54 | 999.4 |
| 20260505184455 | 73 | 278 | 2.6 | 3.5 | 0.00 | 0.00 | 0.00 | 54 | 999.5 |
| 20260505183951 | 74 | 358 | 2.6 | 3.5 | 0.00 | 0.00 | 0.00 | 55 | 999.6 |
| 20260505183449 | 73 | 147 | 2.6 | 3.5 | 0.00 | 0.00 | 0.00 | 54 | 999.5 |
| 20260505182945 | 74 | 282 | 2.6 | 3.5 | 0.00 | 0.00 | 0.00 | 54 | 999.7 |
| 20260505182442 | 73 | 224 | 0.9 | 0.9 | 0.00 | 0.00 | 0.00 | 54 | 999.5 |
| 20260505181938 | 73 | 230 | 3.5 | 3.5 | 0.00 | 0.00 | 0.00 | 57 | 999.6 |
| 20260505181436 | 73 | 103 | 1.7 | 2.6 | 0.00 | 0.00 | 0.00 | 54 | 999.7 |
| 20260505180933 | 74 | 245 | 2.6 | 2.6 | 0.00 | 0.00 | 0.00 | 54 | 999.7 |
| 20260505180429 | 73 | 351 | 0.9 | 1.7 | 0.00 | 0.00 | 0.00 | 55 | 999.8 |
| 20260505175925 | 74 | 249 | 3.5 | 5.2 | 0.00 | 0.00 | 0.00 | 54 | 999.7 |
| 20260505175422 | 74 | 185 | 0.9 | 0.9 | 0.00 | 0.00 | 0.00 | 54 | 999.8 |
| 20260505174918 | 75 | 74 | 3.5 | 3.5 | 0.00 | 0.00 | 0.00 | 51 | 999.7 |
| 20260505174416 | 74 | 129 | 1.7 | 1.7 | 0.00 | 0.00 | 0.00 | 55 | 999.7 |
| 20260505173912 | 73 | 300 | 1.7 | 5.2 | 0.00 | 0.00 | 0.00 | 54 | 1000.0 |
| 20260505173408 | 73 | 238 | 5.2 | 7.0 | 0.00 | 0.00 | 0.00 | 54 | 999.9 |
| 20260505172905 | 74 | 134 | 2.6 | 6.1 | 0.00 | 0.00 | 0.00 | 56 | 999.8 |
| 20260505172403 | 74 | 13 | 3.5 | 5.2 | 0.00 | 0.00 | 0.00 | 52 | 999.9 |
| 20260505171903 | 75 | 85 | 1.7 | 2.6 | 0.00 | 0.00 | 0.00 | 53 | 1000.2 |
| 20260505171400 | 75 | 65 | 1.7 | 1.7 | 0.00 | 0.00 | 0.00 | 53 | 1000.3 |
| 20260505170856 | 74 | 251 | 2.6 | 3.5 | 0.00 | 0.00 | 0.00 | 52 | 1000.2 |
| 20260505170354 | 74 | 266 | 3.5 | 3.5 | 0.00 | 0.00 | 0.00 | 53 | 1000.3 |
| 20260505165848 | 74 | 232 | 4.3 | 6.1 | 0.00 | 0.00 | 0.00 | 54 | 1000.7 |
| 20260505165344 | 73 | 346 | 0.9 | 1.7 | 0.00 | 0.00 | 0.00 | 56 | 1000.5 |
| 20260505164840 | 72 | 283 | 0.9 | 1.7 | 0.00 | 0.00 | 0.00 | 57 | 1000.7 |
| 20260505164337 | 72 | 161 | 3.5 | 5.2 | 0.00 | 0.00 | 0.00 | 56 | 1000.9 |
| 20260505163836 | 72 | 221 | 4.3 | 8.7 | 0.00 | 0.00 | 0.00 | 56 | 1001.1 |
| 20260505163334 | 71 | 287 | 4.3 | 6.1 | 0.00 | 0.00 | 0.00 | 57 | 1001.1 |
| 20260505162832 | 71 | 203 | 3.5 | 5.2 | 0.00 | 0.00 | 0.00 | 58 | 1001.3 |
| 20260505162328 | 71 | 297 | 1.7 | 2.6 | 0.00 | 0.00 | 0.00 | 56 | 1001.3 |
| 20260505161825 | 69 | 145 | 1.7 | 2.6 | 0.00 | 0.00 | 0.00 | 58 | 1001.2 |
| 20260505161322 | 69 | 124 | 2.6 | 2.6 | 0.00 | 0.00 | 0.00 | 58 | 1001.4 |
| 20260505160819 | 69 | 52 | 0.9 | 0.9 | 0.00 | 0.00 | 0.00 | 60 | 1001.5 |
| 20260505160318 | 69 | 111 | 0.9 | 1.7 | 0.00 | 0.00 | 0.00 | 62 | 1001.6 |
| 20260505153256 | 66 | 214 | 3.5 | 3.5 | 0.00 | 0.00 | 0.00 | 64 | 1002.1 |
| 20260505152753 | 65 | 127 | 1.7 | 1.7 | 0.00 | 0.00 | 0.00 | 65 | 1002.2 |
| 20260505152249 | 67 | 260 | 4.3 | 5.2 | 0.00 | 0.00 | 0.00 | 62 | 1002.2 |
| 20260505151744 | 66 | 239 | 1.7 | 2.6 | 0.00 | 0.00 | 0.00 | 64 | 1002.4 |
| 20260505151242 | 65 | 137 | 1.7 | 1.7 | 0.00 | 0.00 | 0.00 | 65 | 1002.3 |
| 20260505150738 | 64 | 267 | 2.6 | 2.6 | 0.00 | 0.00 | 0.00 | 64 | 1002.3 |
| 20260505150236 | 64 | 214 | 1.7 | 2.6 | 0.00 | 0.00 | 0.00 | 64 | 1002.3 |
| 20260505140200 | 66 | 270 | 2.6 | 3.5 | 0.00 | 0.00 | 0.00 | 59 | 1001.9 |
| 20260505130124 | 61 | 293 | 3.5 | 3.5 | 0.00 | 0.00 | 0.00 | 66 | 1002.4 |
| 20260505124613 | 60 | 111 | 0.9 | 1.7 | 0.00 | 0.00 | 0.00 | 69 | 1002.3 |
| 20260505124109 | 59 | 161 | 0.9 | 1.7 | 0.00 | 0.00 | 0.00 | 70 | 1002.2 |
| 20260505123606 | 59 | 132 | 0.9 | 0.9 | 0.00 | 0.00 | 0.00 | 71 | 1002.4 |
| 20260505123103 | 58 | 241 | 1.7 | 2.6 | 0.00 | 0.00 | 0.00 | 72 | 1002.4 |
| 20260505122559 | 57 | 266 | 1.7 | 2.6 | 0.00 | 0.00 | 0.00 | 73 | 1002.6 |
| 20260505122056 | 57 | 260 | 1.7 | 2.6 | 0.00 | 0.00 | 0.00 | 75 | 1002.5 |
| 20260505121553 | 56 | 212 | 1.7 | 2.6 | 0.00 | 0.00 | 0.00 | 74 | 1002.7 |
| 20260505121050 | 56 | 227 | 2.6 | 2.6 | 0.00 | 0.00 | 0.00 | 77 | 1002.5 |
| 20260505120546 | 55 | 225 | 1.7 | 1.7 | 0.00 | 0.00 | 0.00 | 76 | 1002.5 |
| 20260505120042 | 55 | 253 | 2.6 | 3.5 | 0.00 | 0.00 | 0.00 | 78 | 1002.5 |
| 20260505115536 | 54 | 198 | 1.7 | 2.6 | 0.00 | 0.00 | 0.00 | 77 | 1002.6 |
| 20260505115034 | 54 | 146 | 0.9 | 0.9 | 0.00 | 0.00 | 0.00 | 79 | 1002.6 |
| 20260505114531 | 53 | 136 | 0.9 | 1.7 | 0.00 | 0.00 | 0.00 | 79 | 1002.8 |
| 20260505114027 | 53 | 264 | 1.7 | 2.6 | 0.00 | 0.00 | 0.00 | 80 | 1002.5 |
| 20260505113524 | 52 | 277 | 1.7 | 1.7 | 0.00 | 0.00 | 0.00 | 81 | 1002.7 |
| 20260505113020 | 51 | 124 | 0.9 | 0.9 | 0.00 | 0.00 | 0.00 | 82 | 1002.6 |
| 20260505112516 | 51 | 82 | 0.0 | 0.9 | 0.00 | 0.00 | 0.00 | 83 | 1002.5 |
| 20260505112014 | 51 | 355 | 0.9 | 1.7 | 0.00 | 0.00 | 0.00 | 83 | 1002.5 |
| 20260505111508 | 50 | 212 | 0.9 | 0.9 | 0.00 | 0.00 | 0.00 | 83 | 1002.6 |
| 20260505111005 | 50 | 241 | 1.7 | 1.7 | 0.00 | 0.00 | 0.00 | 83 | 1002.5 |
| 20260505110501 | 50 | 249 | 0.9 | 1.7 | 0.00 | 0.00 | 0.00 | 84 | 1003.0 |
| 20260505101932 | 48 | 12 | 0.9 | 0.9 | 0.00 | 0.00 | 0.00 | 87 | 1002.8 |
| 20260505101427 | 48 | 40 | 0.9 | 0.9 | 0.00 | 0.00 | 0.00 | 85 | 1002.8 |
| 20260505100923 | 47 | 219 | 0.9 | 1.7 | 0.00 | 0.00 | 0.00 | 88 | 1002.8 |
| 20260505100420 | 47 | 40 | 0.0 | 0.0 | 0.00 | 0.00 | 0.00 | 87 | 1002.7 |
| 20260505095915 | 48 | 15 | 0.9 | 0.9 | 0.00 | 0.00 | 0.00 | 85 | 1002.9 |
| 20260505095413 | 47 | 221 | 1.7 | 1.7 | 0.00 | 0.00 | 0.00 | 87 | 1002.6 |
| 20260505094909 | 47 | 26 | 0.0 | 0.9 | 0.00 | 0.00 | 0.00 | 88 | 1002.7 |
| 20260505094406 | 46 | 43 | 0.9 | 0.9 | 0.00 | 0.00 | 0.00 | 88 | 1002.5 |
| 20260505093901 | 47 | 229 | 0.9 | 1.7 | 0.00 | 0.00 | 0.00 | 87 | 1002.6 |
| 20260505093359 | 48 | 37 | 0.9 | 0.9 | 0.00 | 0.00 | 0.00 | 84 | 1002.6 |
| 20260505092856 | 48 | 9 | 0.9 | 0.9 | 0.00 | 0.00 | 0.00 | 85 | 1002.5 |
| 20260505092354 | 46 | 8 | 0.9 | 0.9 | 0.00 | 0.00 | 0.00 | 87 | 1002.7 |
| 20260505091851 | 47 | 25 | 0.9 | 0.9 | 0.00 | 0.00 | 0.00 | 86 | 1002.4 |
| 20260505091349 | 46 | 358 | 1.7 | 1.7 | 0.00 | 0.00 | 0.00 | 87 | 1002.6 |
| 20260505090847 | 46 | 23 | 0.0 | 0.9 | 0.00 | 0.00 | 0.00 | 88 | 1002.8 |
| 20260505090345 | 48 | 34 | 0.9 | 0.9 | 0.00 | 0.00 | 0.00 | 84 | 1002.7 |
| 20260505085841 | 50 | 22 | 0.9 | 1.7 | 0.00 | 0.00 | 0.00 | 80 | 1002.7 |
| 20260505085340 | 47 | 264 | 2.6 | 2.6 | 0.00 | 0.00 | 0.00 | 84 | 1002.7 |
| 20260505084837 | 47 | 88 | 0.0 | 0.9 | 0.00 | 0.00 | 0.00 | 85 | 1002.7 |
| 20260505084335 | 47 | 31 | 0.9 | 0.9 | 0.00 | 0.00 | 0.00 | 86 | 1002.6 |
| 20260505083832 | 47 | 311 | 0.9 | 1.7 | 0.00 | 0.00 | 0.00 | 85 | 1002.9 |
| 20260505083330 | 46 | 257 | 2.6 | 2.6 | 0.00 | 0.00 | 0.00 | 87 | 1002.8 |
| 20260505082826 | 46 | 256 | 2.6 | 2.6 | 0.00 | 0.00 | 0.00 | 88 | 1003.0 |
| 20260505082322 | 45 | 18 | 0.9 | 0.9 | 0.00 | 0.00 | 0.00 | 89 | 1002.9 |
| 20260505081819 | 45 | 40 | 0.9 | 0.9 | 0.00 | 0.00 | 0.00 | 89 | 1002.8 |
| 20260505081316 | 43 | 26 | 0.0 | 0.9 | 0.00 | 0.00 | 0.00 | 92 | 1003.0 |
| 20260505080813 | 44 | 350 | 1.7 | 1.7 | 0.00 | 0.00 | 0.00 | 90 | 1002.8 |
| 20260505080308 | 44 | 11 | 0.9 | 1.7 | 0.00 | 0.00 | 0.00 | 91 | 1002.8 |
| 20260505075804 | 45 | 135 | 0.9 | 0.9 | 0.00 | 0.00 | 0.00 | 88 | 1003.0 |
| 20260505075304 | 46 | 45 | 1.7 | 1.7 | 0.00 | 0.00 | 0.00 | 87 | 1002.8 |
| 20260505074758 | 45 | 16 | 0.9 | 0.9 | 0.00 | 0.00 | 0.00 | 89 | 1002.8 |
| 20260505074256 | 44 | 32 | 0.0 | 0.9 | 0.00 | 0.00 | 0.00 | 92 | 1002.9 |
| 20260505073753 | 44 | 355 | 0.9 | 0.9 | 0.00 | 0.00 | 0.00 | 92 | 1002.9 |
| 20260505073251 | 44 | 356 | 0.9 | 1.7 | 0.00 | 0.00 | 0.00 | 92 | 1002.7 |
| 20260505072747 | 44 | 357 | 0.9 | 1.7 | 0.00 | 0.00 | 0.00 | 91 | 1002.8 |
| 20260505072243 | 47 | 324 | 1.7 | 1.7 | 0.00 | 0.00 | 0.00 | 86 | 1003.0 |
| 20260505071739 | 48 | 11 | 0.9 | 0.9 | 0.00 | 0.00 | 0.00 | 83 | 1002.8 |
| 20260505071236 | 46 | 234 | 1.7 | 1.7 | 0.00 | 0.00 | 0.00 | 86 | 1002.8 |
| 20260505070734 | 46 | 345 | 0.0 | 0.9 | 0.00 | 0.00 | 0.00 | 86 | 1003.0 |
| 20260505070230 | 45 | 29 | 0.9 | 0.9 | 0.00 | 0.00 | 0.00 | 88 | 1002.9 |
| 20260505065726 | 49 | 53 | 0.9 | 0.9 | 0.00 | 0.00 | 0.00 | 82 | 1002.9 |
| 20260505065223 | 48 | 248 | 0.0 | 0.9 | 0.00 | 0.00 | 0.00 | 84 | 1003.0 |
| 20260505064720 | 49 | 15 | 0.9 | 0.9 | 0.00 | 0.00 | 0.00 | 81 | 1003.0 |
| 20260505064218 | 48 | 237 | 1.7 | 2.6 | 0.00 | 0.00 | 0.00 | 82 | 1003.0 |
| 20260505063715 | 47 | 43 | 0.0 | 0.0 | 0.00 | 0.00 | 0.00 | 86 | 1002.7 |
| 20260505063211 | 46 | 17 | 0.9 | 0.9 | 0.00 | 0.00 | 0.00 | 87 | 1002.7 |
| 20260505062707 | 46 | 344 | 1.7 | 1.7 | 0.00 | 0.00 | 0.00 | 88 | 1003.0 |
| 20260505062205 | 44 | 353 | 0.9 | 0.9 | 0.00 | 0.00 | 0.00 | 92 | 1002.6 |
| 20260505061701 | 45 | 317 | 1.7 | 1.7 | 0.00 | 0.00 | 0.00 | 90 | 1002.8 |
| 20260505061200 | 44 | 357 | 0.9 | 0.9 | 0.00 | 0.00 | 0.00 | 91 | 1002.9 |
| 20260505060657 | 44 | 352 | 1.7 | 1.7 | 0.00 | 0.00 | 0.00 | 91 | 1002.6 |
| 20260505060154 | 44 | 8 | 0.9 | 0.9 | 0.00 | 0.00 | 0.00 | 91 | 1002.9 |
| 20260505055649 | 45 | 355 | 0.9 | 0.9 | 0.00 | 0.00 | 0.00 | 90 | 1003.0 |
| 20260505055146 | 46 | 359 | 0.9 | 0.9 | 0.00 | 0.00 | 0.00 | 88 | 1002.9 |
| 20260505054643 | 47 | 30 | 0.9 | 0.9 | 0.00 | 0.00 | 0.00 | 86 | 1002.9 |
| 20260505054141 | 47 | 40 | 0.9 | 0.9 | 0.00 | 0.00 | 0.00 | 85 | 1002.9 |
| 20260505053639 | 48 | 40 | 0.9 | 0.9 | 0.00 | 0.00 | 0.00 | 81 | 1002.8 |
| 20260505053135 | 49 | 64 | 0.0 | 0.0 | 0.00 | 0.00 | 0.00 | 81 | 1002.8 |
| 20260505052632 | 49 | 89 | 0.0 | 0.0 | 0.00 | 0.00 | 0.00 | 80 | 1002.8 |
| 20260505052129 | 50 | 50 | 0.0 | 0.0 | 0.00 | 0.00 | 0.00 | 80 | 1002.7 |
| 20260505051626 | 51 | 43 | 0.9 | 0.9 | 0.00 | 0.00 | 0.00 | 76 | 1002.5 |
| 20260505051124 | 51 | 110 | 0.0 | 0.9 | 0.00 | 0.00 | 0.00 | 77 | 1002.6 |
| 20260505050622 | 51 | 73 | 0.0 | 0.9 | 0.00 | 0.00 | 0.00 | 76 | 1002.7 |
| 20260505050120 | 52 | 57 | 0.0 | 0.0 | 0.00 | 0.00 | 0.00 | 75 | 1002.6 |
| 20260505041549 | 50 | 26 | 0.9 | 0.9 | 0.00 | 0.00 | 0.00 | 82 | 1002.2 |
| 20260505041047 | 49 | 37 | 0.9 | 0.9 | 0.00 | 0.00 | 0.00 | 83 | 1002.4 |
| 20260505040544 | 49 | 28 | 0.0 | 0.9 | 0.00 | 0.00 | 0.00 | 84 | 1002.0 |
| 20260505040041 | 49 | 54 | 0.9 | 0.9 | 0.00 | 0.00 | 0.00 | 83 | 1002.1 |
| 20260505035537 | 49 | 43 | 0.9 | 1.7 | 0.00 | 0.00 | 0.00 | 84 | 1002.0 |
| 20260505035034 | 49 | 278 | 1.7 | 1.7 | 0.00 | 0.00 | 0.00 | 84 | 1002.1 |
| 20260505034530 | 49 | 33 | 0.9 | 1.7 | 0.00 | 0.00 | 0.00 | 84 | 1001.9 |
| 20260505034027 | 49 | 12 | 0.9 | 1.7 | 0.00 | 0.00 | 0.00 | 84 | 1001.9 |
| 20260505033524 | 49 | 36 | 0.9 | 0.9 | 0.00 | 0.00 | 0.00 | 84 | 1001.9 |
| 20260505033023 | 49 | 36 | 0.9 | 0.9 | 0.00 | 0.00 | 0.00 | 84 | 1001.8 |
| 20260505032520 | 49 | 34 | 0.9 | 0.9 | 0.00 | 0.00 | 0.00 | 84 | 1001.7 |
| 20260505032016 | 49 | 20 | 0.9 | 0.9 | 0.00 | 0.00 | 0.00 | 83 | 1001.8 |
| 20260505031514 | 49 | 17 | 0.9 | 1.7 | 0.00 | 0.00 | 0.00 | 83 | 1001.8 |
| 20260505031010 | 49 | 42 | 0.9 | 0.9 | 0.00 | 0.00 | 0.00 | 82 | 1001.8 |
| 20260505030507 | 49 | 66 | 0.0 | 0.0 | 0.00 | 0.00 | 0.00 | 82 | 1001.8 |
| 20260505030002 | 50 | 73 | 0.0 | 0.9 | 0.00 | 0.00 | 0.00 | 82 | 1001.8 |
| 20260505025459 | 50 | 28 | 0.9 | 0.9 | 0.00 | 0.00 | 0.00 | 81 | 1002.2 |
| 20260505024958 | 50 | 22 | 0.9 | 0.9 | 0.00 | 0.00 | 0.00 | 81 | 1001.8 |
| 20260505024454 | 50 | 7 | 0.9 | 0.9 | 0.00 | 0.00 | 0.00 | 80 | 1001.8 |
| 20260505023952 | 51 | 153 | 1.7 | 1.7 | 0.00 | 0.00 | 0.00 | 79 | 1001.6 |
| 20260505023448 | 51 | 33 | 1.7 | 1.7 | 0.00 | 0.00 | 0.00 | 79 | 1001.8 |
| 20260505022946 | 51 | 33 | 0.9 | 0.9 | 0.00 | 0.00 | 0.00 | 78 | 1002.0 |
| 20260505022443 | 51 | 114 | 0.9 | 0.9 | 0.00 | 0.00 | 0.00 | 77 | 1002.0 |
| 20260505021941 | 51 | 258 | 1.7 | 1.7 | 0.00 | 0.00 | 0.00 | 78 | 1002.0 |
| 20260505021437 | 51 | 10 | 0.9 | 0.9 | 0.00 | 0.00 | 0.00 | 78 | 1001.8 |
| 20260505020933 | 52 | 26 | 0.0 | 0.9 | 0.00 | 0.00 | 0.00 | 78 | 1001.7 |
| 20260505020428 | 52 | 26 | 0.9 | 0.9 | 0.00 | 0.00 | 0.00 | 77 | 1001.7 |
| 20260505015925 | 51 | 56 | 0.9 | 0.9 | 0.00 | 0.00 | 0.00 | 80 | 1001.8 |
| 20260505015422 | 51 | 58 | 0.0 | 0.0 | 0.00 | 0.00 | 0.00 | 79 | 1001.5 |
| 20260505014920 | 52 | 58 | 0.0 | 0.0 | 0.00 | 0.00 | 0.00 | 79 | 1001.7 |
| 20260505014416 | 52 | 58 | 0.0 | 0.0 | 0.00 | 0.00 | 0.00 | 80 | 1001.7 |
| 20260505013913 | 52 | 58 | 0.0 | 0.0 | 0.00 | 0.00 | 0.00 | 78 | 1001.7 |
| 20260505013410 | 52 | 58 | 0.0 | 0.0 | 0.00 | 0.00 | 0.00 | 79 | 1001.5 |
| 20260505012908 | 52 | 59 | 0.0 | 0.0 | 0.00 | 0.00 | 0.00 | 79 | 1001.5 |
| 20260505012406 | 52 | 59 | 0.0 | 0.0 | 0.00 | 0.00 | 0.00 | 78 | 1001.3 |
| 20260505011902 | 52 | 58 | 0.9 | 0.9 | 0.00 | 0.00 | 0.00 | 78 | 1001.5 |
| 20260505011359 | 53 | 59 | 0.0 | 0.0 | 0.00 | 0.00 | 0.00 | 77 | 1001.2 |
| 20260505010855 | 53 | 59 | 0.0 | 0.0 | 0.00 | 0.00 | 0.00 | 76 | 1001.1 |
| 20260505010351 | 53 | 58 | 0.0 | 0.0 | 0.00 | 0.00 | 0.00 | 74 | 1001.4 |
| 20260505005847 | 54 | 58 | 0.0 | 0.0 | 0.00 | 0.00 | 0.00 | 73 | 1001.2 |
| 20260505005344 | 55 | 58 | 0.0 | 0.0 | 0.00 | 0.00 | 0.00 | 72 | 1001.2 |
| 20260505004842 | 55 | 58 | 0.0 | 0.0 | 0.00 | 0.00 | 0.00 | 70 | 1001.3 |
| 20260505004338 | 56 | 59 | 0.0 | 0.9 | 0.00 | 0.00 | 0.00 | 69 | 1001.1 |
| 20260505003835 | 56 | 61 | 0.0 | 0.0 | 0.00 | 0.00 | 0.00 | 68 | 1001.1 |
| 20260505003333 | 57 | 59 | 0.0 | 0.0 | 0.00 | 0.00 | 0.00 | 67 | 1000.7 |
| 20260505002828 | 57 | 53 | 0.0 | 0.0 | 0.00 | 0.00 | 0.00 | 67 | 1000.8 |
| 20260505002325 | 57 | 57 | 0.9 | 0.9 | 0.00 | 0.00 | 0.00 | 67 | 1000.7 |
| 20260505001824 | 58 | 76 | 0.0 | 0.0 | 0.00 | 0.00 | 0.00 | 66 | 1000.7 |
| 20260505001320 | 58 | 93 | 0.0 | 0.0 | 0.00 | 0.00 | 0.00 | 65 | 1000.3 |
| 20260505000818 | 59 | 358 | 0.0 | 0.9 | 0.00 | 0.00 | 0.00 | 64 | 1000.5 |
| 20260505000315 | 59 | 285 | 2.6 | 3.5 | 0.00 | 0.00 | 0.00 | 63 | 1000.5 |
| 20260504235812 | 60 | 102 | 0.9 | 0.9 | 0.00 | 0.00 | 0.00 | 62 | 1000.4 |
| 20260504235309 | 59 | 19 | 0.9 | 0.9 | 0.00 | 0.00 | 0.00 | 61 | 1000.2 |
| 20260504234805 | 59 | 54 | 0.0 | 0.0 | 0.00 | 0.00 | 0.00 | 61 | 1000.2 |
| 20260504234303 | 59 | 54 | 0.0 | 0.9 | 0.00 | 0.00 | 0.00 | 60 | 1000.1 |
| 20260504233759 | 60 | 53 | 0.9 | 0.9 | 0.00 | 0.00 | 0.00 | 60 | 1000.0 |
| 20260504233255 | 60 | 93 | 1.7 | 2.6 | 0.00 | 0.00 | 0.00 | 58 | 1000.0 |
| 20260504232752 | 61 | 59 | 0.0 | 0.0 | 0.00 | 0.00 | 0.00 | 55 | 1000.3 |
| 20260504232249 | 61 | 59 | 0.0 | 0.0 | 0.00 | 0.00 | 0.00 | 55 | 999.8 |
| 20260504231746 | 61 | 59 | 0.9 | 0.9 | 0.00 | 0.00 | 0.00 | 54 | 999.9 |
| 20260504231242 | 62 | 59 | 0.0 | 0.0 | 0.00 | 0.00 | 0.00 | 54 | 999.6 |